Retour au catalogue

STARLINK-37027

ActifCommunicationsVLEO
NORAD 68232·PAYLOAD·🇺🇸 United States

Lancé Mar 17, 2026 depuis Vandenberg Space Force Base

Loading…

Prochains Passages (prochaines 24 heures)

TLE

FraisSource: CelesTrak SupGP

Époque: Sep 15, 2026, 04:13 UTC

1 68232C 26054A   26258.17618056  .00024292  00000+0  71778-3 0  2584
2 68232  53.1572 126.6042 0001093  81.4611 318.8854 15.34376067    11

Suivez STARLINK-37027 en temps réel avec AllMySat

Download on the App Store